| time (UTC) | temp C | wind direction | speed KPH | gust KPH | rain 1hr cm | rain 24hr cm | rain mn cm | humidity % | barometer mb |
| 20260502200106 | 17 | 170 | 0.0 | 4.8 | 0.00 | 0.00 | 0.00 | 38 | 1005.4 |
| 20260502193057 | 18 | 211 | 1.6 | 4.8 | 0.00 | 0.00 | 0.00 | 35 | 1005.3 |
| 20260502190046 | 19 | 214 | 4.8 | 12.9 | 0.00 | 0.00 | 0.00 | 33 | 1005.2 |
| 20260502183037 | 20 | 227 | 4.8 | 17.7 | 0.00 | 0.00 | 0.00 | 31 | 1005.1 |
| 20260502170130 | 23 | 232 | 8.0 | 24.1 | 0.00 | 0.00 | 0.00 | 25 | 1005.1 |
| 20260502163121 | 23 | 252 | 8.0 | 25.7 | 0.00 | 0.00 | 0.00 | 26 | 1005.4 |
| 20260502160132 | 24 | 243 | 9.7 | 22.5 | 0.00 | 0.00 | 0.00 | 26 | 1005.7 |
| 20260502140115 | 24 | 238 | 9.7 | 19.3 | 0.00 | 0.00 | 0.00 | 29 | 1007.0 |
| 20260502123122 | 23 | 192 | 12.9 | 25.7 | 0.00 | 0.00 | 0.00 | 28 | 1008.2 |
| 20260502113045 | 23 | 212 | 9.7 | 22.5 | 0.00 | 0.00 | 0.00 | 30 | 1009.0 |
| 20260502110115 | 23 | 194 | 11.3 | 30.6 | 0.00 | 0.00 | 0.00 | 30 | 1009.4 |
| 20260502103126 | 22 | 204 | 11.3 | 24.1 | 0.00 | 0.00 | 0.00 | 31 | 1009.8 |
| 20260502070055 | 24 | 201 | 4.8 | 14.5 | 0.00 | 0.00 | 0.00 | 31 | 1012.7 |
| 20260502063045 | 19 | 227 | 4.8 | 12.9 | 0.00 | 0.00 | 0.00 | 43 | 1013.0 |
| 20260502060038 | 13 | 209 | 3.2 | 14.5 | 0.00 | 0.00 | 0.00 | 55 | 1013.2 |
| 20260502053026 | 11 | 178 | 3.2 | 11.3 | 0.00 | 0.00 | 0.00 | 62 | 1013.3 |
| 20260502050056 | 10 | 172 | 3.2 | 8.0 | 0.00 | 0.00 | 0.00 | 65 | 1013.4 |
| 20260502043106 | 8 | 152 | 1.6 | 6.4 | 0.00 | 0.00 | 0.00 | 65 | 1013.5 |
| 20260502040140 | 8 | 180 | 0.0 | 4.8 | 0.00 | 0.00 | 0.00 | 63 | 1013.5 |
| 20260502033047 | 8 | 180 | 0.0 | 4.8 | 0.00 | 0.00 | 0.00 | 61 | 1013.7 |
| 20260502030038 | 10 | 180 | 0.0 | 4.8 | 0.00 | 0.00 | 0.00 | 60 | 1013.9 |
| 20260502023048 | 11 | 162 | 1.6 | 6.4 | 0.00 | 0.00 | 0.00 | 58 | 1014.0 |
| 20260502020019 | 11 | 217 | 3.2 | 14.5 | 0.00 | 0.00 | 0.00 | 57 | 1014.2 |
| 20260502013110 | 11 | 233 | 3.2 | 14.5 | 0.00 | 0.00 | 0.00 | 57 | 1014.4 |
| 20260502010101 | 11 | 210 | 3.2 | 9.7 | 0.00 | 0.00 | 0.00 | 56 | 1014.7 |
| 20260502003051 | 11 | 219 | 1.6 | 9.7 | 0.00 | 0.00 | 0.00 | 55 | 1014.9 |
| 20260502000042 | 11 | 186 | 1.6 | 4.8 | 0.00 | 0.00 | 0.00 | 53 | 1015.1 |
| 20260501233032 | 12 | 231 | 3.2 | 9.7 | 0.00 | 0.00 | 0.00 | 52 | 1015.3 |
| 20260501230023 | 12 | 232 | 3.2 | 11.3 | 0.00 | 0.00 | 0.00 | 50 | 1015.6 |
| 20260501223112 | 12 | 223 | 1.6 | 6.4 | 0.00 | 0.00 | 0.00 | 46 | 1015.8 |
| 20260501213133 | 13 | 242 | 3.2 | 12.9 | 0.00 | 0.00 | 0.00 | 42 | 1016.1 |
| 20260501210105 | 13 | 225 | 3.2 | 9.7 | 0.00 | 0.00 | 0.00 | 41 | 1016.1 |
| 20260501203033 | 15 | 230 | 6.4 | 16.1 | 0.00 | 0.00 | 0.00 | 39 | 1016.3 |